User: anonymous   Login
Location: Dead Woman Crossing
(43.5369°N, 106.3228°W)
Time: 06:00:48
(UTC+00:00)
Language:

AO-109 - Orbit

View from above orbital plane
View from above orbital plane
View from above satellite
View from above satellite

Ground track
Ground track

The orbit data is extracted from the following two-line orbital elements,

1 47311U 21002C   22176.59662326  .00005350  00000-0  22012-3 0  9991
2 47311  60.6858 331.5899 0017661 342.6660  17.3823 15.25416061 79705
Epoch (UTC): 25 June 2022 14:19:08
Eccentricity: 0.0017661
inclination: 60.6858°
perigee height: 477 km
apogee height: 501 km
right ascension of ascending node: 331.5899°
argument of perigee: 342.6660°
revolutions per day: 15.25416061
mean anomaly at epoch: 17.3823°
orbit number at epoch: 7970

The dashed part of the orbit path shows where the satellite is in the earth's shadow,  

DLR